Zurück zum Katalog

JACK-003

AktivWissenschaftSSO
NORAD 66654·PAYLOAD·🇰🇷 South Korea

Gestartet Nov 26, 2025 von Naro Space Center

Loading…

Nächste Überflüge (nächste 24 Stunden)

TLE

AktuellSource: Space-Track

Epoche: Sep 14, 2026, 05:38 UTC

1 66654U 25274E   26257.23475764  .00001523  00000-0  15040-3 0  9991
2 66654  97.7483 185.0888 0014534  63.4092 296.8615 14.93354922 43507

Verfolge JACK-003 in Echtzeit mit AllMySat

Download on the App Store